Location: Moscow
(37.4114°N, 89.0526°W)
Time: 06:28:25
(UTC+00:00)

Daily predictions for brighter satellites

Satellite Brightness Start Highest point End
(mag) Time Altitude Azimuth Time Altitude Azimuth Time Altitude Azimuth
CBERS-1 4.0 12:02:07 10° N 12:07:13 71° WNW 12:12:16 10° SSW
Cosmos 1025 Rocket 3.4 12:04:41 10° SSW 12:08:49 43° W 12:13:00 10° N
Cosmos 2061 Rocket 4.1 23:03:01 10° S 23:09:17 67° E 23:15:29 10° NNE
Cosmos 1782 Rocket 3.6 23:05:12 10° S 23:09:37 78° E 23:14:03 10° N
SL-4 R/B 1.7 23:08:51 10° NW 23:12:17 84° SW 23:15:54 10° SE
Landsat 7 4.2 23:09:02 10° SE 23:13:23 41° ENE 23:17:45 10° N
Cosmos 2233 Rocket 4.1 23:09:21 10° S 23:15:38 84° E 23:21:59 10° N
Cosmos 1300 Rocket 3.8 23:12:26 10° S 23:16:49 77° W 23:21:12 10° N
CORIOLIS 4.1 23:14:19 10° SSE 23:19:40 75° ENE 23:25:01 10° N
Cosmos 407 Rocket 3.6 23:19:07 10° S 23:24:12 57° ESE 23:29:16 10° NNE
ISS -3.2 23:21:31 10° WSW 23:24:47 53° NW 23:28:05 10° NE
CZ-2D R/B 2.8 23:22:38 10° SSE 23:25:41 52° ENE 23:28:46 10° N
SL-12 R/B(2) 4.2 23:18:54 10° SSW 23:26:28 78° ESE 23:35:35 10° NE
Cosmos 1943 Rocket 2.3 23:23:07 10° S 23:28:37 57° ESE 23:34:05 10° NNE
Cosmos 2278 Rocket 2.4 23:23:31 10° S 23:28:59 54° ESE 23:34:30 10° NNE
OAO 3 Rocket 3.7 23:24:33 10° WSW 23:29:03 48° SSE 23:33:15 11° E
Cosmos 2082 Rocket 3.6 23:26:20 10° NNE 23:29:53 17° NE 23:33:06 11° E
Aureole 3 Rocket 3.1 23:28:13 10° SSE 23:31:02 29° E 23:33:42 10° NNE
IRS-1C 4.1 23:25:52 10° SSE 23:31:09 73° ENE 23:36:28 10° N
Cosmos 1975 Rocket 3.0 23:29:28 10° N 23:33:47 62° E 23:38:06 10° SSE
ATLAS 5 CENTAUR R/B 2.0 23:31:36 10° NNW 23:36:11 55° NE 23:41:50 10° SE
MOS 1 Rocket 3.4 23:35:33 10° SE 23:39:34 43° ENE 23:43:44 10° N
SAR-Lupe-1 4.0 23:36:20 10° SSE 23:39:53 87° W 23:43:28 10° NNW
COSMO-SKYMED 1 3.3 23:37:09 10° NE 23:40:46 29° E 23:44:22 10° SSE
USA 215 3.2 23:35:25 10° SE 23:41:56 77° NE 23:48:28 10° NW
SKYMED 2 3.7 23:40:55 10° NNE 23:45:09 51° E 23:49:22 10° S
Okean 1 Rocket 4.4 23:42:30 10° SE 23:45:37 19° E 23:46:31 18° ENE
Helios 1A Rocket 3.2 23:43:02 13° NE 23:45:38 31° E 23:48:40 10° SSE
RESURS DK-1 3.0 23:51:45 10° N 23:55:21 31° ENE 23:57:09 21° ESE
